Simultaneous Nadir Overpasses (SNOs) Predictions

Prediction of SNOs between GOES-16 and AQUA Satellite Orbit:

Table of predicted SNOs for the next 14.0 days since TLE Epoch: 4/13/2017
Index Date Time (GOES-16) GOES-16 Lat,Lon AQUA Lat,Lon Distance(km) Time Diff (sec)
1 04/14/2017 07:52:26 0.00, -89.49 0.90, -93.74 482.73 80
2 04/15/2017 19:18:58 -0.01, -89.48 0.79, -85.62 439.05 80
3 04/16/2017 07:40:14 0.01, -89.50 0.30, -90.78 146.16 80
4 04/18/2017 07:25:23 0.02, -89.50 -0.36, -87.83 190.75 80
5 04/18/2017 19:46:46 -0.02, -89.49 -0.79, -93.01 400.78 80
6 04/20/2017 19:34:35 -0.02, -89.50 -0.12, -90.06 63.69 80
7 04/22/2017 19:25:03 -0.03, -89.51 0.50, -87.10 273.85 80
8 04/23/2017 07:46:18 0.03, -89.53 0.60, -92.26 310.51 80
9 04/25/2017 07:31:26 0.03, -89.54 -0.02, -89.31 27.10 80
10 04/27/2017 07:19:15 0.02, -89.56 -0.64, -86.35 364.60 80
11 04/27/2017 19:40:38 -0.01, -89.54 -0.43, -91.54 227.39 80




NCC Satellite Simultaneous Nadir Overpasses (SNOs) Prediction Service
